Regional Weather Roundup
Issued by NWS

Home | Current Version | Previous Version | Graphics & Text | Print | Product List | Glossary On
Versions: 1 2 3 4 5 6 7 8 9 10 11 12 13 14 15 16 17 18 19 20 21 22 23 24 25 26 27 28 29 30 31 32 33 34 35 36 37 38 39 40 41 42 43 44 45 46 47 48 49 50
000
ASUS43 KLMK 300410
RWRKY
KENTUCKY REGIONAL WEATHER ROUNDUP
NATIONAL WEATHER SERVICE LOUISVILLE KY
1200 AM EDT TUE JUN 30 2015

NOTE "FAIR" INDICATES FEW OR NO CLOUDS BELOW 12,000 FEET
WITH NO SIGNIFICANT WEATHER AND/OR OBSTRUCTIONS TO VISIBILITY.

KYZ001>023-026-027-061>063-070>075-300500-
WESTERN AND SOUTH CENTRAL KENTUCKY

CITY           SKY/WX    TMP DP  RH WIND       PRES   REMARKS
PADUCAH        CLEAR     72  68  87 CALM      29.88R
HENDERSON      PTCLDY    66  63  88 CALM      29.88R
OWENSBORO      CLEAR     69  65  87 CALM      29.89R
HOPKINSVILLE   MOCLDY    72  69  90 SW1       29.90S
BOWLING GREEN  CLEAR     74  69  85 SW3       29.90S
GLASGOW        CLOUDY    69  69 100 CALM      29.91S
$$

KYZ024-025-028>034-038-045-046-053-300500-
NORTH CENTRAL KENTUCKY

CITY           SKY/WX    TMP DP  RH WIND       PRES   REMARKS
LOUISVILLE/SDF PTCLDY    73  63  70 W6        29.87R
LOUISVILLE/LOU CLEAR     73  64  73 W3        29.87S
FORT KNOX      CLEAR     67  63  86 S3        29.87S
$$

KYZ035>037-039>044-047>052-055>060-089>105-300500-
NORTHEAST KENTUCKY

CITY           SKY/WX    TMP DP  RH WIND       PRES   REMARKS
LEXINGTON      PTCLDY    67  65  93 SW7       29.88F
COVINGTON      PTCLDY    68  65  90 SW6       29.85R
FRANKFORT      CLEAR     68  66  93 W5        29.86S
$$

KYZ054-064>069-076>088-106>120-300500-
SOUTHEAST KENTUCKY

CITY           SKY/WX    TMP DP  RH WIND       PRES   REMARKS
JACKSON        CLOUDY    68  64  87 VRB3      29.92S
LONDON         CLOUDY    68  63  84 S6        29.94R
SOMERSET       PTCLDY    64  64 100 CALM      29.94S
MIDDLESBORO    CLOUDY    66  66  99 CALM      29.97R
MONTICELLO     CLOUDY    67  67 100 CALM      29.96R
$$




USA.gov is the U.S. government's official web portal to all federal, state and local government web resources and services.